Location: Pel�-Koumbol�
(14.9505°N, 3.0798°W)
Time: 08:10:22
(UTC+00:00)

Cosmos 2084 - Pass Details

Date: 17 February 2020
Orbit: 568 x 614 km, 62.8° (Epoch: 07 April)

Event Time Altitude Azimuth Distance (km) Brightness Sun altitude
Exits shadow 05:13:56 28° 216° (SW) 1,145 4.6 -20.4°
Maximum altitude 05:16:12 72° 295° (WNW) 642 3.4 -19.8°
Drops below altitude 10° 05:20:38 10° 20° (NNE) 1,965 6.3 -18.8°
Sets 05:22:55 0° 22° (NNE) 2,871 7.2 -18.2°
